Vertical_Velocity
-2 -2 -1 -1 -0 -0 0 -0 -0 -0 0 1 1 1 1 1 1 1 1 1 1 1 2 2 2 3 3 3 2 2 2 2 2 1 1 1 1 1 0 -0 -1 -1 -1 -1 -1 -1 -2 -2 -3 -4 -3 -2 -0 1 2 4 3 2 2 3 2 2 3 5 1 -0 -0 2 -0
-1 -1 -1 -1 -1 -0 0 0 0 0 0 1 1 1 1 1 1 1 1 1 1 1 2 3 3 3 3 3 2 2 2 2 2 2 1 1 0 0 0 0 -0 -1 -1 -1 -1 -1 -1 -2 -3 -4 -4 -3 -1 -1 -0 2 3 3 2 2 1 2 4 4 0 -1 0 4 3
-1 -0 -0 -0 -0 0 1 1 1 1 1 1 1 1 1 1 2 1 1 1 1 1 1 2 3 3 3 2 2 1 1 1 2 2 2 1 1 0 -0 -0 -0 -1 -1 -2 -2 -2 -2 -2 -3 -3 -3 -3 -3 -3 -2 1 2 1 -0 -0 2 4 4 1 -1 0 3 5 5
-0 -0 0 0 0 1 1 2 2 2 2 1 1 1 1 1 1 1 1 1 0 0 0 1 2 2 2 2 2 1 1 1 1 2 2 2 1 1 -0 -0 -1 -1 -2 -3 -3 -3 -3 -3 -3 -3 -3 -3 -3 -3 -3 -0 -0 -1 -2 0 4 4 2 -1 2 4 4 2 3
0 0 0 1 1 1 1 1 1 1 1 1 1 0 0 0 -0 -0 0 0 -0 -0 -0 1 1 1 2 2 2 1 1 1 1 1 2 2 2 1 0 -0 -1 -2 -2 -3 -4 -4 -5 -5 -4 -3 -3 -2 -3 -3 -3 -2 -2 -3 -3 1 3 2 0 2 4 4 2 0 2
0 0 0 0 0 -0 -0 -0 -0 -0 -0 -0 -0 -0 -0 -0 -0 -1 -1 -0 -0 -0 -0 0 0 1 1 1 1 1 1 1 1 1 1 2 2 2 1 -0 -1 -2 -3 -4 -4 -5 -5 -5 -4 -3 -2 -2 -3 -3 -2 -2 -4 -4 -3 -0 -0 1 2 4 4 3 2 -0 2
-1 -0 -0 -0 -0 -1 -1 -1 -1 -1 -1 -1 -0 -0 -0 -0 -1 -1 -2 -2 -2 -1 -1 -0 -0 0 0 0 1 1 1 1 1 1 1 1 2 1 1 -0 -1 -2 -3 -4 -4 -5 -5 -4 -4 -3 -2 -2 -3 -3 -3 -3 -4 -4 -3 -2 -2 1 4 3 4 4 3 -1 1
-1 -1 -1 -1 -1 -1 -2 -2 -2 -2 -1 -1 -1 -0 -0 -1 -1 -2 -2 -3 -3 -2 -2 -1 -1 -0 -0 -0 -0 0 1 1 1 1 1 1 1 1 1 0 -1 -2 -3 -5 -5 -4 -4 -4 -3 -3 -3 -3 -3 -3 -3 -3 -4 -4 -3 -3 -2 0 2 3 6 6 3 -0 1
-1 -1 -1 -1 -1 -1 -2 -2 -2 -2 -2 -1 -1 -1 -1 -1 -2 -2 -3 -3 -3 -3 -3 -2 -1 -1 -1 -1 -1 -1 -0 1 1 1 1 1 1 1 0 0 -0 -2 -3 -4 -4 -4 -4 -4 -3 -3 -3 -3 -3 -3 -3 -3 -3 -3 -3 -2 -2 -1 1 3 6 6 4 2 2
-1 -1 -0 -0 -1 -1 -1 -2 -2 -2 -2 -2 -2 -1 -1 -2 -2 -3 -3 -3 -3 -3 -3 -2 -1 -1 -1 -1 -1 -1 -1 -0 0 1 1 1 0 0 -0 -0 -1 -2 -3 -4 -4 -4 -4 -4 -4 -4 -4 -3 -3 -3 -2 -2 -2 -3 -3 -2 -2 -1 0 3 6 6 5 4 3
-1 -1 -1 -0 -0 -0 -0 -1 -1 -2 -2 -2 -2 -1 -2 -2 -2 -3 -3 -4 -3 -3 -3 -3 -1 -1 -1 -0 -1 -1 -1 -1 -0 0 0 0 0 -0 -0 -1 -1 -2 -2 -3 -3 -3 -3 -3 -4 -4 -4 -4 -3 -3 -3 -2 -2 -2 -2 -2 -2 -1 -0 2 5 6 6 4 3
-1 -1 -1 -1 -1 -0 -0 -0 -1 -1 -2 -2 -1 -1 -1 -2 -2 -3 -3 -4 -4 -4 -4 -3 -2 -1 -1 -1 -1 -1 -1 -1 -1 -1 -0 0 -0 -0 -1 -1 -2 -2 -2 -3 -3 -3 -3 -3 -3 -3 -4 -5 -4 -4 -3 -3 -3 -3 -2 -2 -2 -2 -1 1 4 5 6 5 4
-1 -1 -1 -1 -1 -1 -0 -1 -1 -1 -1 -2 -1 -1 -1 -1 -2 -2 -3 -3 -4 -4 -4 -4 -3 -2 -2 -1 -1 -1 -1 -1 -2 -1 -1 -1 -0 -0 -1 -2 -2 -2 -2 -3 -3 -3 -3 -3 -3 -3 -3 -4 -5 -5 -5 -4 -4 -3 -3 -2 -2 -2 -1 0 2 5 6 6 4
-2 -1 -1 -2 -2 -1 -1 -1 -1 -1 -1 -2 -1 -1 -0 -1 -2 -2 -2 -3 -3 -4 -4 -4 -4 -3 -2 -1 -1 -1 -1 -1 -2 -2 -2 -1 -1 -0 -1 -1 -2 -2 -3 -3 -3 -3 -3 -3 -3 -3 -3 -4 -5 -5 -5 -4 -4 -3 -3 -2 -2 -2 -1 -0 2 4 6 7 6
-2 -2 -1 -1 -2 -2 -1 -1 -1 -1 -1 -1 -1 -1 -0 -0 -1 -2 -2 -2 -3 -3 -3 -3 -3 -3 -2 -1 -1 -1 -1 -2 -2 -2 -2 -2 -1 -1 -0 -1 -1 -2 -3 -3 -4 -4 -4 -4 -4 -4 -4 -4 -4 -4 -4 -4 -4 -3 -3 -2 -2 -2 -1 -1 2 4 6 8 8
-2 -2 -2 -1 -2 -2 -2 -2 -1 -1 -1 -1 -2 -1 -0 -0 -1 -1 -2 -2 -2 -2 -2 -3 -3 -3 -2 -1 -1 -1 -1 -2 -2 -2 -2 -2 -1 -1 -0 -0 -1 -2 -3 -3 -4 -4 -4 -4 -4 -4 -3 -3 -4 -4 -4 -3 -3 -3 -2 -2 -1 -1 -1 -1 2 5 7 7 10
-1 -1 -1 -1 -2 -2 -2 -2 -2 -1 -1 -2 -2 -2 -1 -1 -1 -1 -2 -2 -1 -1 -2 -3 -3 -2 -2 -1 -1 -0 -0 -1 -2 -2 -2 -2 -2 -1 -0 -0 -1 -2 -3 -3 -3 -3 -4 -4 -4 -4 -3 -3 -3 -3 -3 -3 -3 -3 -2 -1 -1 -1 -1 -0 2 5 7 8 10
-1 -1 -1 -1 -1 -2 -2 -2 -2 -2 -2 -2 -2 -2 -2 -2 -1 -1 -2 -2 -1 -1 -1 -2 -3 -2 -2 -1 -0 0 1 -0 -1 -2 -3 -3 -2 -1 -0 -0 -1 -1 -2 -2 -2 -2 -3 -3 -4 -4 -4 -3 -3 -3 -3 -3 -3 -2 -2 -1 -1 -1 -1 0 2 4 6 8 11
-1 -1 -1 -1 -1 -1 -1 -1 -1 -1 -1 -1 -2 -2 -2 -2 -2 -1 -1 -2 -1 -1 -1 -2 -2 -3 -2 -1 -0 0 1 1 -0 -1 -2 -3 -2 -1 -1 -0 -1 -1 -1 -1 -1 -2 -2 -3 -3 -4 -4 -4 -3 -3 -3 -2 -2 -2 -2 -2 -2 -1 -0 1 2 3 5 6 12
-1 -1 -1 -1 -1 -1 -0 -0 -0 -1 -1 -1 -1 -1 -2 -2 -2 -1 -1 -1 -1 -1 -1 -1 -2 -2 -2 -2 -1 -0 0 0 0 -1 -2 -2 -2 -2 -1 -1 -1 -1 -1 -1 -1 -1 -2 -2 -3 -3 -3 -3 -3 -2 -2 -2 -2 -2 -2 -2 -2 -1 -0 1 3 4 5 7 12
-1 -1 -1 -1 -1 -0 -0 -0 -0 -1 -1 -1 -1 -1 -1 -2 -2 -2 -1 -1 -1 -0 -0 -0 -1 -1 -2 -2 -1 -1 -0 0 0 -0 -1 -2 -2 -2 -2 -1 -0 -1 -1 -0 -1 -1 -1 -1 -2 -3 -3 -3 -2 -2 -1 -1 -1 -1 -1 -2 -2 -1 1 3 4 5 6 8 12
-2 -2 -2 -1 -1 -1 -0 -0 -1 -1 -1 -1 -1 -1 -1 -1 -2 -2 -2 -1 -0 0 0 0 -0 -1 -1 -2 -1 -1 -0 0 0 -0 -1 -1 -1 -2 -1 -1 -0 -0 -0 -0 -0 -0 -0 -1 -1 -2 -2 -2 -2 -1 -1 -0 -1 -1 -1 -2 -2 -0 2 5 6 6 8 11 16
-2 -2 -2 -2 -1 -1 -1 -1 -1 -2 -2 -1 -1 -0 -0 -1 -1 -2 -2 -1 -1 -0 0 1 1 0 -1 -2 -2 -1 0 1 1 0 -1 -1 -1 -1 -1 -0 0 0 -0 -1 -1 -1 -0 1 -0 -1 -1 -1 -1 -1 -1 -0 -0 -1 -1 -1 0 2 5 7 8 9 11 15 22
-3 -3 -3 -2 -2 -2 -2 -2 -2 -2 -2 -1 -1 -0 -0 -0 -1 -1 -2 -2 -1 -0 0 1 1 1 -0 -1 -2 -1 0 2 2 1 0 -1 -0 -0 0 1 1 1 -0 -2 -2 -2 -0 2 0 -1 -1 -1 -1 -1 -1 -0 -1 -1 -1 0 3 6 8 9 10 11 13 15 19
-2 -2 -3 -3 -2 -2 -2 -2 -2 -2 -2 -2 -1 -1 -1 -1 -1 -1 -2 -2 -1 -0 0 1 1 1 1 -0 -1 -1 -0 1 2 2 1 0 0 0 1 2 2 2 -0 -3 -4 -4 -1 3 1 -1 -2 -1 -0 -0 0 0 -0 -1 -0 1 3 6 8 9 10 11 12 12 13
-1 -2 -2 -2 -2 -2 -2 -2 -2 -2 -2 -2 -2 -1 -1 -1 -1 -1 -2 -2 -1 -1 0 1 1 1 1 1 -0 -1 -1 0 2 3 3 2 1 1 2 3 4 3 0 -4 -7 -5 -1 2 1 -1 -3 -2 -0 1 1 1 -0 -0 -0 0 2 4 5 6 7 9 10 11 11
-1 -1 -1 -1 -2 -2 -2 -2 -2 -2 -2 -2 -2 -1 -1 -1 -1 -1 -2 -2 -2 -1 0 1 1 1 2 2 1 -0 -1 -0 1 2 3 3 3 3 3 4 5 4 0 -6 -10 -7 -3 1 -0 -2 -3 -2 -1 1 1 1 1 0 -0 -0 0 1 2 3 3 5 7 9 10
-1 -1 -1 -1 -1 -2 -2 -2 -2 -2 -2 -2 -2 -2 -1 -1 -0 -1 -1 -2 -2 -1 -0 1 1 2 2 3 2 1 0 0 1 2 2 3 3 4 4 5 6 4 -1 -10 -13 -10 -5 -1 -1 -1 -1 -1 -0 1 2 2 2 1 1 -0 -1 -0 -0 0 1 2 4 6 7
-1 -1 -1 -1 -1 -2 -2 -3 -3 -3 -3 -3 -2 -2 -2 -1 -1 -1 -1 -1 -2 -1 -1 0 1 2 2 3 3 3 2 1 1 1 2 3 3 4 5 6 6 4 -3 -15 -16 -12 -6 -1 -0 1 1 1 0 0 1 2 2 2 1 1 -0 -1 -1 -1 -1 -0 1 3 4
-1 -1 -1 -1 -2 -3 -3 -3 -3 -3 -3 -3 -3 -3 -3 -2 -1 -1 -1 -1 -1 -1 -1 -0 1 1 2 3 4 4 4 3 2 2 2 2 3 4 5 5 5 2 -5 -16 -15 -9 -3 0 2 3 3 2 1 -0 -0 0 1 2 2 1 1 -0 -1 -2 -2 -2 -1 -0 1
-2 -2 -2 -2 -3 -3 -3 -3 -3 -4 -4 -4 -4 -4 -3 -3 -3 -2 -2 -1 -1 -1 -1 -0 -0 0 1 2 4 5 5 5 4 3 2 2 3 4 4 4 3 1 -4 -12 -10 -5 -0 2 3 4 4 4 2 1 0 -0 0 1 2 2 1 0 -1 -2 -3 -3 -3 -2 -2
-3 -3 -3 -3 -3 -3 -3 -3 -3 -3 -3 -4 -4 -4 -4 -3 -3 -3 -3 -2 -1 -1 -0 -0 -0 -0 0 1 3 5 6 7 6 5 3 2 3 3 4 3 2 1 -2 -7 -6 -3 -0 0 2 3 4 5 4 3 2 2 1 1 1 2 2 1 -0 -2 -3 -3 -3 -3 -2
-3 -3 -3 -3 -2 -2 -3 -3 -3 -3 -3 -3 -3 -4 -4 -3 -3 -3 -3 -3 -2 -1 -1 -0 -0 -0 0 1 2 4 6 7 7 6 4 2 2 3 3 2 1 1 -0 -3 -3 -3 -3 -3 -0 2 3 3 4 4 3 4 3 3 2 2 2 2 1 -0 -1 -2 -2 -2 -2
-2 -2 -2 -2 -2 -2 -2 -2 -2 -2 -2 -2 -3 -3 -3 -3 -3 -3 -3 -2 -2 -2 -1 -1 -0 -0 -0 1 2 4 5 6 7 7 6 3 3 3 2 2 1 1 1 -1 -2 -3 -4 -2 -0 1 1 1 1 2 2 2 3 3 3 2 2 2 2 1 1 -0 -0 -1 -1
-2 -1 -1 -2 -1 -1 -1 -1 -1 -2 -2 -2 -2 -2 -2 -3 -3 -2 -2 -2 -2 -2 -2 -1 -1 -1 -0 -0 1 3 5 6 7 7 7 5 4 3 2 1 1 1 1 -0 -2 -2 -2 -1 -0 -0 0 1 1 0 0 0 1 2 3 3 2 2 3 3 3 2 2 1 1
-1 -1 -1 -1 -1 -1 -1 -1 -1 -1 -1 -1 -1 -1 -1 -2 -2 -2 -1 -1 -1 -2 -2 -1 -1 -1 -1 -1 0 2 4 5 6 7 7 6 5 4 3 2 1 1 1 -0 -1 -0 -0 -1 -2 -1 -0 1 1 0 -0 -0 -0 1 1 2 1 1 2 3 4 4 4 4 3
-1 -1 -1 -1 -1 -2 -2 -2 -1 -1 -1 -1 -1 -1 -1 -1 -2 -2 -1 -1 -1 -1 -1 -1 -1 -0 -1 -1 -0 1 2 4 5 6 6 6 6 5 4 3 2 1 1 -0 -0 0 0 -1 -1 -1 -1 0 1 1 0 -0 -0 -0 0 1 -0 -0 0 2 3 4 5 6 4
-1 -1 -1 -1 -1 -2 -2 -3 -2 -2 -1 -1 -1 -1 -1 -1 -2 -2 -2 -1 -0 -0 -1 -1 -0 0 0 -0 -0 -0 1 2 4 5 5 6 6 5 4 4 3 2 1 0 0 0 1 0 -1 -2 -2 0 2 2 1 0 -0 -1 -1 -1 -1 -1 -1 0 2 3 5 5 5
-1 -1 -1 -1 -2 -2 -3 -3 -3 -3 -2 -1 -1 -1 -1 -1 -2 -2 -2 -2 -1 -1 -0 -0 0 1 1 1 1 0 0 1 3 4 5 5 5 5 5 4 3 2 1 1 0 0 1 0 -2 -2 -2 1 3 3 3 1 -0 -1 -1 -1 -1 -1 -1 -0 1 2 3 4 3
-1 -1 -1 -2 -2 -2 -3 -3 -4 -3 -3 -1 -1 -1 -1 -1 -2 -2 -2 -2 -2 -1 -1 -0 0 1 2 2 2 1 1 1 2 3 4 4 4 4 4 4 3 2 2 1 0 -0 -0 -1 -2 -2 -1 1 4 5 3 1 0 -0 -1 -0 0 0 0 -0 1 1 2 2 2
-1 -1 -1 -1 -2 -2 -2 -3 -4 -4 -3 -2 -1 -0 -0 -1 -1 -2 -2 -2 -2 -2 -1 -1 -0 1 2 3 3 2 2 1 2 2 3 3 3 3 3 3 3 2 2 1 0 -0 -1 -2 -3 -2 -1 2 5 5 4 2 1 0 0 1 1 1 1 1 1 1 2 2 1
Height
5520 5518 5516 5515 5513 5512 5510 5509 5508 5507 5506 5505 5504 5504 5503 5503 5502 5502 5502 5501 5501 5501 5501 5501 5501 5501 5501 5501 5501 5501 5501 5501 5500 5500 5500 5500 5500 5500 5499 5499 5499 5499 5499 5499 5499 5499 5499 5500 5500 5501 5502 5503 5504 5505 5505 5507 5508 5509 5510 5511 5514 5516 5519 5521 5523 5525 5529 5533 5537
5518 5516 5515 5513 5511 5510 5508 5507 5506 5505 5504 5503 5502 5501 5501 5501 5500 5500 5500 5499 5499 5499 5499 5499 5499 5498 5498 5498 5498 5498 5498 5497 5497 5497 5497 5496 5496 5496 5496 5496 5495 5495 5495 5495 5495 5495 5495 5495 5495 5496 5496 5497 5498 5499 5500 5500 5501 5503 5504 5505 5507 5510 5512 5514 5517 5519 5522 5527 5530
5517 5515 5513 5511 5510 5508 5507 5505 5504 5503 5502 5501 5500 5500 5499 5499 5498 5498 5497 5497 5497 5496 5496 5496 5496 5496 5495 5495 5495 5495 5494 5494 5494 5494 5494 5493 5493 5493 5492 5492 5492 5491 5491 5491 5490 5490 5490 5490 5491 5491 5491 5492 5492 5493 5494 5494 5495 5497 5498 5500 5501 5504 5506 5508 5510 5513 5516 5520 5523
5515 5514 5512 5510 5508 5507 5505 5504 5503 5502 5501 5500 5499 5498 5498 5497 5496 5496 5495 5495 5495 5494 5494 5494 5493 5493 5493 5493 5492 5492 5491 5491 5491 5491 5490 5490 5490 5490 5489 5489 5488 5488 5487 5487 5486 5486 5486 5486 5486 5487 5487 5487 5487 5488 5488 5488 5489 5491 5492 5494 5495 5498 5500 5502 5504 5507 5510 5513 5516
5514 5512 5510 5509 5507 5506 5504 5503 5502 5500 5500 5499 5498 5497 5496 5495 5495 5494 5493 5493 5492 5492 5491 5491 5491 5490 5490 5490 5489 5489 5488 5488 5488 5487 5487 5487 5486 5486 5486 5485 5485 5484 5484 5483 5483 5482 5482 5482 5482 5483 5483 5483 5483 5483 5483 5483 5484 5485 5486 5488 5490 5492 5495 5496 5499 5501 5504 5506 5509
5513 5511 5509 5508 5506 5505 5503 5502 5500 5499 5498 5497 5496 5495 5495 5494 5493 5492 5491 5490 5490 5490 5489 5489 5488 5488 5487 5487 5486 5486 5485 5485 5485 5484 5484 5484 5483 5483 5482 5482 5481 5480 5480 5480 5479 5479 5478 5478 5478 5479 5478 5478 5478 5478 5478 5478 5478 5479 5480 5482 5484 5486 5489 5491 5493 5495 5498 5500 5503
5511 5509 5508 5506 5505 5503 5501 5500 5499 5498 5497 5496 5495 5494 5493 5492 5491 5490 5489 5488 5488 5487 5486 5486 5485 5485 5485 5484 5483 5483 5482 5482 5481 5481 5480 5480 5480 5479 5479 5478 5477 5477 5476 5476 5475 5475 5475 5474 5474 5474 5474 5474 5474 5474 5473 5473 5473 5474 5475 5476 5478 5480 5483 5485 5487 5490 5492 5495 5497
5509 5507 5506 5504 5503 5501 5500 5498 5497 5496 5495 5494 5493 5492 5491 5490 5489 5488 5487 5486 5485 5484 5484 5483 5483 5482 5482 5481 5480 5480 5479 5479 5478 5477 5477 5476 5476 5475 5475 5474 5474 5473 5472 5472 5471 5471 5471 5470 5470 5470 5470 5470 5469 5469 5469 5469 5469 5469 5470 5471 5472 5474 5477 5479 5481 5484 5486 5489 5491
5507 5505 5504 5502 5501 5499 5498 5496 5495 5494 5492 5491 5490 5489 5488 5487 5486 5485 5484 5483 5482 5482 5481 5480 5480 5479 5479 5478 5477 5476 5476 5475 5475 5474 5474 5473 5472 5471 5471 5470 5470 5469 5469 5468 5468 5467 5467 5466 5466 5466 5465 5465 5465 5465 5464 5464 5464 5465 5465 5466 5467 5469 5471 5473 5476 5479 5481 5484 5486
5505 5503 5502 5500 5499 5497 5495 5494 5492 5491 5490 5489 5488 5487 5486 5485 5484 5483 5482 5480 5480 5479 5478 5477 5477 5476 5475 5475 5474 5473 5472 5472 5471 5470 5470 5469 5469 5468 5467 5467 5466 5465 5465 5464 5464 5463 5463 5462 5462 5462 5461 5461 5460 5460 5460 5460 5460 5460 5460 5461 5462 5463 5465 5467 5470 5473 5476 5479 5482
5503 5501 5499 5498 5496 5495 5493 5491 5490 5489 5487 5486 5485 5484 5483 5482 5481 5480 5479 5478 5476 5475 5475 5474 5473 5473 5472 5471 5470 5470 5469 5468 5467 5467 5466 5465 5465 5464 5463 5463 5462 5461 5461 5460 5460 5459 5459 5458 5458 5458 5457 5456 5456 5455 5455 5455 5455 5455 5455 5456 5457 5458 5460 5462 5465 5468 5471 5474 5478
5500 5498 5496 5495 5493 5492 5490 5489 5487 5486 5484 5483 5482 5481 5480 5479 5477 5476 5475 5474 5473 5472 5471 5470 5470 5469 5468 5468 5467 5466 5465 5464 5463 5463 5462 5461 5461 5460 5459 5459 5458 5457 5457 5456 5455 5455 5455 5454 5454 5453 5453 5452 5451 5451 5450 5450 5450 5450 5451 5452 5453 5454 5455 5457 5460 5463 5466 5470 5474
5497 5495 5493 5492 5490 5489 5487 5485 5484 5482 5481 5480 5479 5477 5476 5475 5474 5473 5472 5471 5470 5469 5468 5467 5466 5465 5465 5464 5463 5462 5461 5460 5459 5459 5458 5457 5456 5456 5455 5454 5454 5453 5452 5452 5451 5451 5450 5450 5450 5449 5448 5447 5447 5446 5445 5445 5446 5446 5447 5448 5449 5450 5451 5453 5455 5458 5462 5466 5470
5494 5492 5490 5488 5487 5485 5484 5482 5480 5479 5478 5476 5475 5474 5473 5471 5470 5469 5468 5467 5466 5465 5464 5463 5462 5461 5460 5460 5459 5458 5457 5456 5455 5454 5454 5453 5452 5452 5451 5450 5450 5449 5448 5447 5447 5446 5446 5445 5445 5445 5444 5443 5442 5442 5441 5441 5441 5442 5443 5444 5445 5445 5447 5449 5451 5454 5459 5463 5467
5490 5489 5487 5485 5483 5481 5480 5478 5477 5475 5474 5472 5471 5470 5469 5467 5466 5465 5464 5463 5462 5461 5460 5459 5458 5457 5456 5456 5455 5454 5453 5452 5451 5450 5449 5449 5448 5447 5447 5446 5445 5445 5444 5443 5443 5442 5442 5441 5441 5440 5440 5439 5438 5438 5438 5438 5438 5438 5439 5440 5441 5442 5443 5445 5447 5450 5455 5460 5464
5487 5485 5483 5481 5479 5478 5476 5474 5473 5471 5470 5468 5467 5466 5465 5464 5462 5461 5460 5459 5458 5457 5456 5455 5454 5453 5452 5451 5450 5450 5449 5448 5447 5446 5445 5444 5444 5443 5443 5442 5441 5440 5440 5439 5439 5438 5438 5437 5436 5436 5435 5435 5434 5434 5434 5434 5434 5435 5435 5436 5437 5438 5440 5441 5444 5447 5450 5455 5460
5483 5481 5479 5477 5475 5474 5472 5470 5469 5467 5466 5464 5463 5461 5460 5459 5458 5457 5456 5455 5454 5453 5452 5451 5450 5449 5448 5447 5446 5445 5445 5444 5443 5442 5441 5440 5440 5439 5439 5438 5437 5437 5436 5435 5435 5434 5434 5433 5432 5432 5431 5431 5430 5430 5430 5430 5430 5431 5432 5433 5434 5435 5436 5437 5440 5443 5447 5450 5454
5479 5477 5475 5473 5471 5469 5468 5466 5465 5463 5461 5460 5458 5457 5456 5455 5453 5452 5451 5450 5450 5449 5448 5446 5445 5444 5443 5443 5442 5441 5440 5440 5439 5438 5437 5436 5435 5435 5434 5434 5433 5433 5432 5432 5431 5431 5430 5429 5429 5428 5428 5427 5427 5427 5427 5427 5427 5428 5428 5429 5430 5431 5432 5434 5436 5440 5443 5446 5448
5475 5472 5470 5469 5467 5465 5463 5462 5460 5459 5457 5455 5454 5452 5451 5450 5449 5448 5447 5446 5445 5444 5443 5442 5441 5440 5439 5438 5438 5437 5436 5435 5435 5434 5433 5432 5431 5430 5430 5430 5430 5429 5429 5428 5428 5427 5426 5426 5425 5425 5424 5424 5424 5423 5424 5424 5424 5425 5425 5425 5426 5427 5429 5430 5433 5436 5439 5441 5443
5470 5468 5466 5464 5462 5460 5459 5457 5455 5454 5452 5450 5449 5448 5446 5445 5444 5443 5442 5441 5440 5439 5438 5437 5436 5435 5434 5434 5433 5432 5432 5431 5430 5430 5429 5428 5427 5426 5426 5426 5425 5425 5425 5425 5424 5424 5423 5422 5421 5421 5420 5420 5420 5420 5420 5420 5421 5421 5422 5422 5423 5424 5425 5427 5430 5432 5435 5438 5440
5465 5463 5461 5459 5457 5455 5454 5452 5450 5448 5447 5445 5444 5443 5441 5440 5439 5438 5437 5436 5435 5435 5434 5433 5432 5431 5430 5429 5428 5428 5427 5427 5426 5425 5425 5424 5423 5422 5422 5422 5422 5421 5421 5421 5420 5420 5420 5419 5418 5418 5417 5417 5417 5417 5417 5418 5418 5418 5419 5419 5420 5420 5422 5424 5427 5430 5433 5436 5439
5461 5459 5456 5454 5452 5450 5449 5447 5445 5443 5441 5440 5439 5438 5436 5435 5434 5433 5432 5431 5430 5430 5429 5428 5427 5426 5425 5424 5424 5423 5423 5422 5422 5421 5420 5420 5419 5418 5418 5418 5418 5418 5417 5417 5417 5416 5416 5416 5415 5415 5414 5414 5414 5414 5414 5415 5415 5416 5416 5417 5417 5418 5420 5422 5425 5428 5432 5436 5440
5456 5454 5451 5450 5447 5445 5444 5441 5440 5438 5436 5435 5434 5432 5431 5430 5429 5428 5427 5426 5425 5425 5424 5423 5422 5421 5420 5420 5419 5419 5419 5418 5418 5417 5416 5415 5415 5415 5414 5414 5414 5414 5414 5413 5413 5413 5413 5412 5412 5411 5411 5411 5411 5411 5411 5412 5413 5414 5415 5415 5416 5417 5419 5421 5424 5426 5430 5434 5436
5451 5449 5447 5445 5443 5440 5439 5436 5435 5433 5431 5430 5428 5427 5426 5425 5424 5422 5421 5421 5420 5420 5419 5419 5418 5417 5416 5415 5414 5414 5414 5414 5414 5413 5412 5411 5411 5411 5410 5410 5410 5410 5410 5409 5409 5410 5410 5409 5409 5408 5408 5408 5408 5408 5408 5409 5410 5411 5412 5414 5415 5416 5418 5420 5422 5424 5426 5427 5429
5447 5445 5442 5440 5438 5436 5434 5432 5430 5428 5426 5425 5423 5422 5420 5419 5418 5417 5416 5415 5415 5415 5414 5414 5413 5412 5411 5411 5410 5410 5409 5409 5409 5409 5408 5408 5407 5407 5407 5407 5407 5406 5406 5405 5405 5407 5407 5405 5405 5405 5405 5405 5405 5405 5405 5406 5407 5408 5410 5411 5413 5414 5415 5417 5419 5420 5421 5422 5423
5444 5441 5439 5436 5434 5431 5429 5427 5425 5423 5421 5420 5418 5416 5415 5414 5413 5411 5410 5410 5410 5409 5409 5409 5408 5408 5407 5406 5405 5405 5405 5405 5405 5405 5404 5404 5404 5403 5403 5403 5403 5403 5402 5401 5402 5402 5402 5402 5402 5402 5402 5402 5402 5403 5403 5404 5405 5405 5407 5408 5410 5411 5413 5414 5415 5416 5417 5418 5419
5441 5438 5435 5433 5430 5428 5425 5423 5421 5419 5417 5415 5413 5412 5410 5409 5407 5406 5405 5404 5404 5404 5404 5403 5403 5403 5403 5402 5401 5401 5400 5400 5400 5400 5400 5400 5400 5400 5400 5400 5400 5399 5398 5396 5399 5398 5398 5399 5399 5399 5399 5399 5400 5400 5400 5401 5402 5403 5404 5405 5406 5408 5410 5411 5412 5413 5413 5414 5415
5438 5435 5432 5430 5427 5424 5421 5419 5417 5415 5413 5411 5409 5407 5405 5404 5403 5401 5400 5399 5398 5398 5398 5398 5398 5398 5398 5397 5397 5397 5396 5396 5396 5396 5396 5396 5396 5396 5396 5396 5396 5395 5394 5393 5393 5393 5394 5395 5396 5396 5396 5397 5397 5397 5398 5399 5399 5400 5401 5402 5403 5405 5406 5408 5409 5410 5410 5411 5411
5435 5432 5429 5426 5424 5420 5418 5415 5413 5410 5408 5406 5404 5403 5401 5399 5398 5396 5395 5394 5393 5393 5392 5392 5392 5392 5393 5393 5393 5392 5392 5392 5391 5391 5391 5391 5392 5392 5392 5392 5392 5391 5390 5388 5389 5390 5391 5392 5393 5394 5394 5394 5395 5395 5395 5395 5396 5397 5398 5399 5400 5401 5403 5405 5406 5407 5407 5408 5409
5432 5429 5426 5423 5420 5417 5414 5412 5409 5406 5404 5402 5400 5398 5396 5395 5393 5392 5390 5389 5388 5387 5387 5387 5387 5387 5387 5388 5388 5388 5388 5388 5387 5387 5387 5387 5387 5388 5388 5388 5388 5386 5385 5384 5385 5387 5388 5389 5390 5391 5392 5392 5392 5392 5392 5392 5393 5394 5395 5396 5397 5398 5399 5401 5402 5404 5405 5405 5406
5429 5426 5423 5420 5417 5414 5411 5408 5405 5403 5400 5398 5396 5394 5392 5390 5389 5387 5386 5385 5383 5382 5382 5381 5381 5381 5382 5382 5383 5383 5384 5384 5383 5383 5382 5382 5383 5383 5383 5383 5383 5382 5381 5380 5382 5385 5385 5386 5388 5389 5389 5389 5389 5389 5389 5390 5390 5391 5392 5393 5394 5395 5396 5397 5399 5400 5401 5403 5404
5426 5423 5420 5417 5414 5411 5408 5405 5402 5400 5397 5394 5392 5390 5388 5386 5384 5382 5381 5380 5379 5378 5377 5376 5376 5376 5376 5377 5377 5378 5379 5379 5379 5379 5378 5378 5378 5379 5379 5379 5379 5378 5378 5377 5379 5381 5382 5382 5384 5385 5386 5386 5387 5387 5387 5387 5387 5388 5388 5389 5390 5391 5392 5394 5395 5396 5398 5400 5401
5424 5420 5417 5414 5411 5408 5405 5402 5399 5396 5394 5391 5388 5386 5384 5382 5380 5378 5376 5375 5374 5373 5372 5371 5371 5371 5371 5371 5372 5373 5374 5374 5375 5375 5374 5374 5374 5374 5374 5374 5374 5374 5374 5374 5376 5378 5378 5378 5380 5381 5382 5383 5383 5384 5384 5385 5385 5385 5385 5386 5387 5388 5389 5390 5391 5393 5395 5396 5397
5421 5418 5415 5412 5409 5405 5402 5399 5396 5393 5390 5388 5385 5382 5380 5378 5376 5374 5372 5371 5370 5368 5367 5367 5366 5366 5365 5366 5367 5367 5368 5369 5370 5370 5370 5369 5369 5370 5370 5370 5370 5370 5370 5371 5371 5373 5374 5375 5376 5377 5378 5379 5379 5380 5381 5382 5382 5383 5383 5383 5384 5385 5385 5386 5388 5390 5391 5392 5394
5419 5416 5413 5409 5406 5403 5399 5396 5393 5390 5387 5385 5382 5379 5377 5374 5372 5370 5368 5367 5365 5364 5363 5362 5361 5361 5360 5361 5361 5362 5363 5364 5365 5365 5365 5365 5365 5365 5365 5365 5365 5366 5367 5367 5367 5369 5371 5373 5372 5373 5374 5375 5375 5376 5377 5379 5380 5380 5381 5381 5381 5382 5382 5383 5385 5386 5387 5389 5390
5417 5414 5410 5407 5403 5400 5396 5393 5390 5387 5384 5381 5379 5376 5373 5371 5369 5366 5365 5363 5361 5360 5359 5358 5357 5356 5356 5356 5356 5357 5358 5359 5360 5360 5360 5361 5361 5361 5361 5361 5361 5362 5363 5363 5364 5365 5366 5369 5369 5369 5370 5371 5372 5373 5374 5375 5376 5377 5378 5379 5379 5380 5380 5380 5381 5382 5384 5385 5386
5414 5411 5407 5404 5400 5397 5393 5390 5387 5384 5381 5378 5375 5373 5370 5367 5365 5363 5361 5359 5357 5356 5355 5354 5353 5352 5352 5351 5351 5351 5352 5353 5354 5355 5356 5356 5356 5357 5357 5357 5357 5358 5358 5359 5360 5361 5362 5364 5366 5366 5365 5367 5368 5370 5371 5372 5373 5374 5375 5376 5377 5377 5378 5378 5379 5380 5380 5382 5383
5411 5408 5405 5401 5398 5394 5390 5387 5384 5381 5378 5375 5372 5369 5367 5364 5362 5360 5357 5355 5354 5352 5351 5350 5349 5348 5348 5347 5347 5347 5347 5348 5349 5350 5351 5351 5352 5352 5353 5353 5353 5354 5354 5355 5356 5357 5358 5359 5361 5362 5362 5363 5365 5366 5368 5369 5370 5371 5372 5373 5374 5374 5375 5375 5376 5377 5378 5378 5380
5409 5405 5402 5398 5395 5391 5387 5384 5380 5378 5375 5372 5369 5366 5364 5361 5359 5356 5354 5352 5350 5349 5347 5346 5345 5345 5344 5343 5343 5342 5342 5343 5343 5344 5345 5346 5347 5347 5348 5349 5349 5350 5350 5351 5352 5353 5354 5355 5356 5358 5360 5360 5361 5363 5364 5365 5367 5368 5369 5370 5370 5371 5372 5372 5373 5374 5375 5375 5376
5406 5403 5399 5395 5392 5388 5385 5381 5378 5375 5371 5369 5366 5363 5361 5358 5356 5353 5351 5349 5347 5345 5344 5343 5342 5341 5340 5340 5339 5338 5338 5338 5338 5339 5340 5341 5342 5342 5343 5344 5345 5345 5346 5347 5347 5348 5349 5350 5351 5353 5355 5356 5358 5360 5361 5362 5363 5365 5366 5367 5367 5368 5369 5369 5370 5370 5371 5372 5373
5404 5400 5396 5393 5389 5385 5382 5379 5375 5372 5369 5366 5363 5361 5358 5355 5353 5350 5348 5346 5344 5342 5341 5340 5338 5338 5337 5336 5335 5335 5334 5334 5334 5334 5335 5336 5337 5337 5338 5339 5340 5340 5341 5342 5343 5344 5345 5346 5347 5349 5350 5353 5354 5355 5357 5359 5360 5361 5362 5364 5365 5365 5365 5366 5366 5367 5368 5369 5369